Market Report

or Create your own market report

Harbour Town Home Sales Market Report

Past year activity for home sales in Harbour Town, Sea Pines, Hilton Head Island, SC


Active Properties
Address Beds Baths Living ft2 List Price Dom
29 Baynard Park Road 4 6 3,742 $3,749,000 N/A
71 N Calibogue Cay Road 5 7 5,958 $7,250,000 N/A
Average: 4.5 6.5 4,850 $5,499,500
Viewing 1 - 2 of 2
Viewing 1 - 2 of 2
Properties Under Contract
Address Beds Baths Living ft2 List Price Dom
22 Windjammer Court 3 3 2,492 $989,000 N/A
24 Spartina Crescent 3 4 3,278 $1,190,000 N/A
72 Baynard Cove Road 3 4 3,089 $1,700,000 N/A
8 Dewberry Lane 3 2 1,732 $725,000 N/A
13 Spartina Court 3 3 2,203 $799,900 N/A
43 Heritage Road 4 4 4,076 $1,590,000 N/A
20 Turnberry Lane 5 5 5,800 $1,975,000 N/A
83 Plantation Drive 5 7 5,000 $2,599,000 N/A
23 N Calibogue Cay Road 4 3 4,041 $2,399,000 N/A
67 Baynard Park Road 4 5 4,910 $4,500,000 N/A
Average: 3.7 4.0 3,662 $1,846,690
Viewing 1 - 10 of 10
Viewing 1 - 10 of 10
Sold Properties
Address Beds Baths Living ft2 List Price Sold Price Sold Date
26 N Calibogue Cay Road 3 2 2,320 $1,595,000 $1,595,000 7/15/21
16 Ridgewood Lane 4 6 4,760 $1,795,000 $1,760,000 7/13/21
9 N Calibogue Cay Road 4 5 4,679 $3,495,000 $3,400,000 7/12/21
26 Red Oak Road 5 5 4,190 $1,650,000 $1,537,500 6/28/21
69 N Calibogue Cay Road 4 5 6,243 $6,500,000 $5,400,000 6/24/21
32 Plantation Drive 3 4 2,975 $1,250,000 $1,163,250 6/22/21
12 Red Oak Road 3 3 3,196 $1,550,000 $1,550,000 6/21/21
2041 Deer Island Road 2 2 928 $499,000 $555,000 6/21/21
17 Columbine Lane 3 2 1,696 $799,000 $780,000 6/21/21
27 Gunnery Lane 3 3 2,000 $809,000 $800,000 6/15/21
30 N Calibogue Cay Road 4 5 3,296 $1,850,000 $1,850,000 6/11/21
34 Windjammer Court 3 3 2,393 $949,000 $1,100,000 6/11/21
9 Spartina Court 2 2 1,721 $639,000 $630,000 6/1/21
34 Stoney Creek Road 3 4 2,371 $775,000 $775,000 5/14/21
35 Saint Andrews Place 4 4 2,900 $1,479,000 $1,455,000 4/30/21
47 Planters Wood Drive 3 3 2,057 $755,000 $800,000 4/27/21
38 Planters Wood Drive 3 3 2,469 $1,190,000 $1,190,000 4/23/21
34 Red Oak Road 3 4 2,445 $950,000 $958,000 4/14/21
4 Ridgewood Lane 3 4 3,355 $1,249,000 $1,215,000 4/9/21
60 N Calibogue Cay Road 4 4 4,200 $1,835,000 $1,835,000 4/5/21
15 Mizzenmast Lane 4 5 3,022 $1,995,000 $1,900,000 3/26/21
52 N Calibogue Cay Road 4 5 4,296 $1,895,000 $1,750,000 3/22/21
15 Dewberry Lane 4 3 2,504 $700,000 $700,000 3/19/21
30 Red Oak Road 4 5 3,866 $1,349,000 $1,380,000 3/18/21
6 Saint Andrews Place 3 4 2,260 $1,050,000 $1,090,000 3/15/21
36 Wisteria Lane 3 4 2,646 $669,900 $640,000 3/8/21
64 N Calibogue Cay Road 4 4 4,215 $1,625,000 $1,550,000 3/4/21
12 Forest Drive 3 4 2,689 $999,900 $892,000 3/1/21
42 Planters Wood Drive 3 4 2,500 $1,175,000 $1,150,000 3/1/21
34 Hearthwood Drive 4 5 3,119 $1,097,000 $1,100,000 2/22/21
8 Windjammer Court 4 4 3,471 $909,000 $886,500 2/9/21
14 Ridgewood Lane 4 4 4,124 $969,000 $908,250 1/29/21
25 Spartina Crescent 3 5 3,754 $895,000 $830,000 1/27/21
35 Red Oak Road 5 7 4,913 $1,690,000 $1,540,000 1/25/21
26 Forest Drive 3 2 1,676 $789,000 $707,000 1/12/21
65 Baynard Park Road 4 4 3,328 $2,095,000 $1,900,000 1/11/21
4 Twin Pines Road 5 6 4,475 $1,389,000 $1,319,000 1/7/21
53 N Calibogue Cay Road 4 5 3,689 $3,725,000 $3,700,000 12/31/20
28 Forest Drive 4 2 2,106 $799,000 $760,000 12/21/20
11 Saint Andrews Place 4 4 3,756 $949,000 $922,000 12/15/20
13 Mizzenmast Lane 4 4 2,920 $998,500 $998,500 12/10/20
28 Plantation Drive 6 5 3,675 $925,000 $925,000 12/7/20
93 Plantation Drive 5 5 3,506 $1,299,000 $1,235,000 12/2/20
15 Fern Court 3 2 1,437 $719,000 $680,000 12/1/20
108 Baynard Cove Road 3 4 3,453 $1,029,000 $1,030,000 12/1/20
2035 Deer Island Road 2 2 916 $499,900 $499,900 12/1/20
26 Ridgewood Lane 3 5 3,781 $799,000 $770,000 11/16/20
13 Fern Court 3 3 2,293 $929,000 $940,000 11/10/20
30 Harleston Green 5 6 4,725 $1,850,000 $1,750,000 10/30/20
42 Planters Wood Drive 3 4 2,500 $949,500 $949,500 10/21/20
Average: 3.7 4.1 3,205 $1,331,447 $1,276,741
Viewing 1 - 50 of 73
Viewing 1 - 50 of 73
board logo

We do not attempt to independently verify the currency, completeness, accuracy or authenticity of the data contained herein. It may be subject to transcription and transmission errors. Accordingly, the data is provided on an “as is,” “as available” basis only and may not reflect all real estate activity in the market. © 2021 Multiple Listing Service of Hilton Head Island, Inc. All rights reserved. Certain information contained herein is derived from information which is the licensed property of, and copyrighted by, Multiple Listing Service of Hilton Head Island, Inc.